Location: Clarks Summit,Pa.
(41.5000°N, 75.6000°W)
Time: 20:28:14
(UTC-05:00)

Envisat - Pass Details

Date: 09 December 2021
Orbit: 764 x 766 km, 98.2° (Epoch: 16 January)

Event Time Altitude Azimuth Distance (km) Brightness Sun altitude
Rises 04:07:49 0° 25° (NNE) 3,240 6.5 -34.6°
Reaches altitude 10° 04:10:31 10° 38° (NE) 2,308 5.8 -34.1°
Maximum altitude 04:14:43 26° 94° (E) 1,485 5.0 -33.3°
Drops below altitude 10° 04:18:53 10° 150° (SSE) 2,294 5.8 -32.5°
Sets 04:21:32 0° 163° (SSE) 3,214 6.5 -32.0°
